Location: Nitra
(0.0000°N, 18.0833°E)
Time: 19:04:40
(UTC+02:00)

A-11 Canister half - Pass Details

Date: 08 April 2023
Orbit: 1526 x 1682 km, 47.3° (Epoch: 08 June)

Event Time Altitude Azimuth Distance (km) Brightness Sun altitude
Rises 09:13:24 0° 208° (SSW) 4,794 11.3 35.6°
Reaches altitude 10° 09:16:37 10° 203° (SSW) 3,829 10.9 36.4°
Maximum altitude 09:26:01 50° 129° (SE) 2,008 10.7 38.7°
Drops below altitude 10° 09:35:37 10° 57° (ENE) 3,922 12.1 41.1°
Sets 09:38:55 0° 52° (NE) 4,917 12.3 41.9°
